TimeEST,TemperatureF,Dew PointF,Humidity,Sea Level PressureIn,VisibilityMPH,Wind Direction,Wind SpeedMPH,Gust SpeedMPH,PrecipitationIn,Events,Conditions,WindDirDegrees,DateUTC
12:15 AM,10.4,-4.0,52,30.21,10.0,Calm,Calm,-,N/A,,Clear,0,2013-01-23 05:15:00
12:35 AM,10.4,-2.2,57,30.20,10.0,Calm,Calm,-,N/A,,Clear,0,2013-01-23 05:35:00
12:55 AM,10.4,-2.2,57,30.20,10.0,Calm,Calm,-,N/A,,Clear,0,2013-01-23 05:55:00
1:15 AM,10.4,-4.0,52,30.21,10.0,Calm,Calm,-,N/A,,Clear,0,2013-01-23 06:15:00
1:35 AM,10.4,-2.2,57,30.21,10.0,Calm,Calm,-,N/A,,Clear,0,2013-01-23 06:35:00
1:55 AM,10.4,-2.2,57,30.21,10.0,Calm,Calm,-,N/A,,Clear,0,2013-01-23 06:55:00
2:15 AM,10.4,-2.2,57,30.22,10.0,Calm,Calm,-,N/A,,Clear,0,2013-01-23 07:15:00
2:35 AM,10.4,-2.2,57,30.22,10.0,Calm,Calm,-,N/A,,Clear,0,2013-01-23 07:35:00
2:55 AM,10.4,-2.2,57,30.22,10.0,Calm,Calm,-,N/A,,Clear,0,2013-01-23 07:55:00
3:15 AM,10.4,-2.2,57,30.22,10.0,Calm,Calm,-,N/A,,Clear,0,2013-01-23 08:15:00
3:35 AM,10.4,-2.2,57,30.21,10.0,Calm,Calm,-,N/A,,Clear,0,2013-01-23 08:35:00
3:55 AM,10.4,-2.2,57,30.21,10.0,Calm,Calm,-,N/A,,Clear,0,2013-01-23 08:55:00
4:15 AM,10.4,-2.2,57,30.21,10.0,Calm,Calm,-,N/A,,Clear,0,2013-01-23 09:15:00
4:35 AM,10.4,-2.2,57,30.22,10.0,Calm,Calm,-,N/A,,Clear,0,2013-01-23 09:35:00
4:55 AM,10.4,-2.2,57,30.21,10.0,Calm,Calm,-,N/A,,Clear,0,2013-01-23 09:55:00
5:15 AM,10.4,-2.2,57,30.22,10.0,Calm,Calm,-,N/A,,Clear,0,2013-01-23 10:15:00
5:35 AM,10.4,-2.2,57,30.22,10.0,Calm,Calm,-,N/A,,Clear,0,2013-01-23 10:35:00
5:55 AM,8.6,-2.2,62,30.22,10.0,Calm,Calm,-,N/A,,Clear,0,2013-01-23 10:55:00
6:15 AM,8.6,-2.2,62,30.22,10.0,Calm,Calm,-,N/A,,Clear,0,2013-01-23 11:15:00
6:35 AM,8.6,-2.2,62,30.23,10.0,Calm,Calm,-,N/A,,Clear,0,2013-01-23 11:35:00
6:55 AM,8.6,-2.2,62,30.23,10.0,Calm,Calm,-,N/A,,Clear,0,2013-01-23 11:55:00
7:15 AM,8.6,-0.4,67,30.23,9.0,Calm,Calm,-,N/A,,Clear,0,2013-01-23 12:15:00
7:35 AM,8.6,-0.4,67,30.23,10.0,Calm,Calm,-,N/A,,Clear,0,2013-01-23 12:35:00
7:55 AM,10.4,-0.4,62,30.23,10.0,Calm,Calm,-,N/A,,Clear,0,2013-01-23 12:55:00
8:15 AM,10.4,-0.4,62,30.24,10.0,Calm,Calm,-,N/A,,Clear,0,2013-01-23 13:15:00
8:35 AM,10.4,-0.4,62,30.24,10.0,Calm,Calm,-,N/A,,Clear,0,2013-01-23 13:35:00
8:55 AM,12.2,-0.4,57,30.25,10.0,Calm,Calm,-,N/A,,Clear,0,2013-01-23 13:55:00
9:15 AM,12.2,-0.4,57,30.25,10.0,Calm,Calm,-,N/A,,Clear,0,2013-01-23 14:15:00
9:35 AM,14.0,-0.4,53,30.25,10.0,Calm,Calm,-,N/A,,Clear,0,2013-01-23 14:35:00
9:55 AM,14.0,-0.4,53,30.26,10.0,Calm,Calm,-,N/A,,Clear,0,2013-01-23 14:55:00
10:15 AM,15.8,-0.4,49,30.26,10.0,Calm,Calm,-,N/A,,Clear,0,2013-01-23 15:15:00
10:35 AM,15.8,-0.4,49,30.25,10.0,Calm,Calm,-,N/A,,Partly Cloudy,0,2013-01-23 15:35:00
10:50 AM,15.8,-0.4,49,30.25,10.0,Calm,Calm,-,N/A,,Scattered Clouds,0,2013-01-23 15:50:00
11:15 AM,15.8,-2.2,45,30.24,10.0,Calm,Calm,-,N/A,,Scattered Clouds,0,2013-01-23 16:15:00
11:35 AM,15.8,-0.4,49,30.23,10.0,Calm,Calm,-,N/A,,Mostly Cloudy,0,2013-01-23 16:35:00
11:55 AM,15.8,-0.4,49,30.21,10.0,Calm,Calm,-,N/A,,Mostly Cloudy,0,2013-01-23 16:55:00
12:15 PM,15.8,-0.4,49,30.20,10.0,Calm,Calm,-,N/A,,Mostly Cloudy,0,2013-01-23 17:15:00
12:35 PM,17.6,-0.4,45,30.18,10.0,Calm,Calm,-,N/A,,Mostly Cloudy,0,2013-01-23 17:35:00
12:55 PM,17.6,-0.4,45,30.18,10.0,Calm,Calm,-,N/A,,Mostly Cloudy,0,2013-01-23 17:55:00
1:15 PM,15.8,-0.4,49,30.18,10.0,Calm,Calm,-,N/A,,Mostly Cloudy,0,2013-01-23 18:15:00
1:35 PM,17.6,-0.4,45,30.17,10.0,Calm,Calm,-,N/A,,Mostly Cloudy,0,2013-01-23 18:35:00
1:55 PM,17.6,-0.4,45,30.17,10.0,Calm,Calm,-,N/A,,Mostly Cloudy,0,2013-01-23 18:55:00
2:15 PM,15.8,-0.4,49,30.17,10.0,Calm,Calm,-,N/A,,Mostly Cloudy,0,2013-01-23 19:15:00
2:35 PM,15.8,1.4,53,30.18,10.0,Calm,Calm,-,N/A,,Mostly Cloudy,0,2013-01-23 19:35:00
2:55 PM,19.4,-0.4,42,30.17,10.0,Calm,Calm,-,N/A,,Mostly Cloudy,0,2013-01-23 19:55:00
3:15 PM,17.6,1.4,49,30.18,10.0,Calm,Calm,-,N/A,,Unknown,0,2013-01-23 20:15:00
3:35 PM,15.8,-0.4,49,30.18,10.0,Calm,Calm,-,N/A,,Clear,0,2013-01-23 20:35:00
3:55 PM,15.8,-0.4,49,30.18,10.0,Calm,Calm,-,N/A,,Scattered Clouds,0,2013-01-23 20:55:00
4:15 PM,15.8,-0.4,49,30.17,10.0,Calm,Calm,-,N/A,,Scattered Clouds,0,2013-01-23 21:15:00
4:30 PM,15.8,1.4,53,30.17,10.0,Calm,Calm,-,N/A,,Mostly Cloudy,0,2013-01-23 21:30:00
4:55 PM,15.8,1.4,53,30.18,10.0,Calm,Calm,-,N/A,,Clear,0,2013-01-23 21:55:00
5:15 PM,15.8,1.4,53,30.18,10.0,Calm,Calm,-,N/A,,Partly Cloudy,0,2013-01-23 22:15:00
5:35 PM,14.0,3.2,62,30.18,10.0,Calm,Calm,-,N/A,,Clear,0,2013-01-23 22:35:00
5:55 PM,14.0,3.2,62,30.19,10.0,Calm,Calm,-,N/A,,Clear,0,2013-01-23 22:55:00
6:15 PM,14.0,3.2,62,30.19,10.0,Calm,Calm,-,N/A,,Clear,0,2013-01-23 23:15:00
6:35 PM,14.0,3.2,62,30.19,10.0,Calm,Calm,-,N/A,,Clear,0,2013-01-23 23:35:00
6:55 PM,12.2,5.0,73,30.18,10.0,Calm,Calm,-,N/A,,Clear,0,2013-01-23 23:55:00
7:15 PM,10.4,5.0,79,30.18,10.0,Calm,Calm,-,N/A,,Clear,0,2013-01-24 00:15:00
7:35 PM,10.4,5.0,79,30.18,10.0,Calm,Calm,-,N/A,,Clear,0,2013-01-24 00:35:00
7:55 PM,8.6,5.0,85,30.17,10.0,Calm,Calm,-,N/A,,Clear,0,2013-01-24 00:55:00
8:15 PM,8.6,5.0,85,30.17,10.0,Calm,Calm,-,N/A,,Clear,0,2013-01-24 01:15:00
8:35 PM,8.6,5.0,85,30.16,10.0,Calm,Calm,-,N/A,,Clear,0,2013-01-24 01:35:00
8:55 PM,8.6,5.0,85,30.16,10.0,Calm,Calm,-,N/A,,Clear,0,2013-01-24 01:55:00
9:15 PM,8.6,5.0,85,30.17,10.0,Calm,Calm,-,N/A,,Clear,0,2013-01-24 02:15:00
9:35 PM,8.6,5.0,85,30.17,10.0,Calm,Calm,-,N/A,,Clear,0,2013-01-24 02:35:00
9:55 PM,6.8,5.0,92,30.17,10.0,Calm,Calm,-,N/A,,Scattered Clouds,0,2013-01-24 02:55:00
10:15 PM,8.6,5.0,85,30.17,10.0,Calm,Calm,-,N/A,,Overcast,0,2013-01-24 03:15:00
10:35 PM,8.6,5.0,85,30.17,10.0,Calm,Calm,-,N/A,,Mostly Cloudy,0,2013-01-24 03:35:00
10:55 PM,8.6,6.8,92,30.17,10.0,Calm,Calm,-,N/A,,Mostly Cloudy,0,2013-01-24 03:55:00
11:15 PM,10.4,5.0,79,30.16,10.0,Calm,Calm,-,N/A,,Overcast,0,2013-01-24 04:15:00
11:35 PM,8.6,6.8,92,30.16,9.0,Calm,Calm,-,N/A,,Overcast,0,2013-01-24 04:35:00
11:55 PM,8.6,6.8,92,30.15,10.0,Calm,Calm,-,N/A,,Overcast,0,2013-01-24 04:55:00